Time,TemperatureF,DewpointF,PressureIn,WindDirection,WindDirectionDegrees,WindSpeedMPH,WindSpeedGustMPH,Humidity,HourlyPrecipIn,Conditions,Clouds,dailyrainin,SoftwareType,DateUTC
2013-08-29 00:00:00,67.8,64.4,29.98,East,90,0.0,3.0,89,0.00,,,0.00,WUHU216DAVISVP2,2013-08-29 04:00:00,
2013-08-29 00:01:00,67.8,64.4,29.98,East,80,1.0,1.0,89,0.00,,,0.00,WUHU216DAVISVP2,2013-08-29 04:01:00,
2013-08-29 00:02:00,67.8,64.8,29.98,NNE,32,2.0,3.0,90,0.00,,,0.00,WUHU216DAVISVP2,2013-08-29 04:02:00,
2013-08-29 00:04:00,67.7,64.7,29.98,NNW,330,1.8,4.0,90,0.00,,,0.00,WUHU216DAVISVP2,2013-08-29 04:04:00,
2013-08-29 00:09:00,67.6,64.6,29.99,NW,322,0.0,4.0,90,0.00,,,0.00,WUHU216DAVISVP2,2013-08-29 04:09:00,
2013-08-29 00:14:00,67.5,64.5,29.98,NW,322,0.0,4.0,90,0.00,,,0.00,WUHU216DAVISVP2,2013-08-29 04:14:00,
2013-08-29 00:19:00,67.6,64.6,29.98,NW,322,0.0,4.0,90,0.00,,,0.00,WUHU216DAVISVP2,2013-08-29 04:19:00,
2013-08-29 00:24:00,67.6,64.9,29.98,NW,322,1.0,1.0,91,0.00,,,0.00,WUHU216DAVISVP2,2013-08-29 04:24:00,
2013-08-29 00:29:00,67.5,64.5,29.98,NW,321,1.0,2.0,90,0.00,,,0.00,WUHU216DAVISVP2,2013-08-29 04:29:00,
2013-08-29 00:30:00,67.5,64.5,29.98,NW,315,0.0,4.0,90,0.00,,,0.00,WUHU216DAVISVP2,2013-08-29 04:30:00,
2013-08-29 00:34:00,67.5,64.8,29.98,NW,321,1.0,2.0,91,0.00,,,0.00,WUHU216DAVISVP2,2013-08-29 04:34:00,
2013-08-29 00:39:00,67.4,64.3,29.98,NW,322,0.0,2.0,90,0.00,,,0.00,WUHU216DAVISVP2,2013-08-29 04:39:00,
2013-08-29 00:44:00,67.4,64.7,29.98,NW,322,1.0,2.0,91,0.00,,,0.00,WUHU216DAVISVP2,2013-08-29 04:44:00,
2013-08-29 00:49:00,67.4,64.7,29.98,NW,322,0.0,2.0,91,0.00,,,0.00,WUHU216DAVISVP2,2013-08-29 04:49:00,
2013-08-29 00:54:00,67.4,64.7,29.98,NW,322,0.0,2.0,91,0.00,,,0.00,WUHU216DAVISVP2,2013-08-29 04:54:00,
2013-08-29 00:59:00,67.4,64.7,29.98,NW,322,0.0,2.0,91,0.00,,,0.00,WUHU216DAVISVP2,2013-08-29 04:59:00,
2013-08-29 01:00:00,67.4,64.7,29.97,NW,315,0.0,2.0,91,0.00,,,0.00,WUHU216DAVISVP2,2013-08-29 05:00:00,
2013-08-29 01:04:00,67.4,64.7,29.97,NW,322,0.0,1.0,91,0.00,,,0.00,WUHU216DAVISVP2,2013-08-29 05:04:00,
2013-08-29 01:09:00,67.4,64.7,29.97,NW,322,0.0,1.0,91,0.00,,,0.00,WUHU216DAVISVP2,2013-08-29 05:09:00,
2013-08-29 01:14:00,67.4,64.7,29.97,NW,322,0.0,1.0,91,0.00,,,0.00,WUHU216DAVISVP2,2013-08-29 05:14:00,
2013-08-29 01:19:00,67.3,64.9,29.97,NW,322,1.0,1.0,92,0.00,,,0.00,WUHU216DAVISVP2,2013-08-29 05:19:00,
2013-08-29 01:24:00,67.2,64.8,29.97,NW,322,0.0,1.0,92,0.00,,,0.00,WUHU216DAVISVP2,2013-08-29 05:24:00,
2013-08-29 01:29:00,67.0,64.6,29.97,NW,322,0.0,1.0,92,0.00,,,0.00,WUHU216DAVISVP2,2013-08-29 05:29:00,
2013-08-29 01:30:00,67.0,64.6,29.96,NW,315,0.0,1.0,92,0.00,,,0.00,WUHU216DAVISVP2,2013-08-29 05:30:00,
2013-08-29 01:34:00,67.0,64.9,29.96,NW,322,0.0,1.0,93,0.01,,,0.01,WUHU216DAVISVP2,2013-08-29 05:34:00,
2013-08-29 01:39:00,66.8,64.7,29.96,NW,322,0.0,0.0,93,0.01,,,0.01,WUHU216DAVISVP2,2013-08-29 05:39:00,
2013-08-29 01:44:00,66.7,64.6,29.96,NW,322,0.0,0.0,93,0.01,,,0.01,WUHU216DAVISVP2,2013-08-29 05:44:00,
2013-08-29 01:49:00,66.6,64.5,29.96,NW,322,0.0,0.0,93,0.01,,,0.01,WUHU216DAVISVP2,2013-08-29 05:49:00,
2013-08-29 01:54:00,66.5,64.7,29.95,NW,322,0.0,0.0,94,0.01,,,0.01,WUHU216DAVISVP2,2013-08-29 05:54:00,
2013-08-29 01:59:00,66.5,64.7,29.95,NW,322,0.0,0.0,94,0.01,,,0.01,WUHU216DAVISVP2,2013-08-29 05:59:00,
2013-08-29 02:00:00,66.4,64.6,29.95,North,0,0.0,0.0,94,0.00,,,0.00,WUHU216DAVISVP2,2013-08-29 06:00:00,
2013-08-29 02:04:00,66.4,64.6,29.95,NW,322,0.0,0.0,94,0.02,,,0.02,WUHU216DAVISVP2,2013-08-29 06:04:00,
2013-08-29 02:09:00,66.2,64.4,29.95,NW,322,0.0,0.0,94,0.02,,,0.02,WUHU216DAVISVP2,2013-08-29 06:09:00,
2013-08-29 02:14:00,66.1,64.6,29.95,NW,322,0.0,0.0,95,0.02,,,0.02,WUHU216DAVISVP2,2013-08-29 06:14:00,
2013-08-29 02:19:00,66.1,64.6,29.95,NW,322,0.0,0.0,95,0.02,,,0.02,WUHU216DAVISVP2,2013-08-29 06:19:00,
2013-08-29 02:24:00,66.1,64.6,29.96,NW,322,0.0,0.0,95,0.02,,,0.02,WUHU216DAVISVP2,2013-08-29 06:24:00,
2013-08-29 02:29:00,66.1,64.6,29.95,NW,322,0.0,0.0,95,0.02,,,0.02,WUHU216DAVISVP2,2013-08-29 06:29:00,
2013-08-29 02:30:00,66.1,64.6,29.96,North,0,0.0,0.0,95,0.01,,,0.01,WUHU216DAVISVP2,2013-08-29 06:30:00,
2013-08-29 02:34:00,66.1,64.6,29.95,NW,322,0.0,0.0,95,0.01,,,0.02,WUHU216DAVISVP2,2013-08-29 06:34:00,
2013-08-29 02:39:00,66.1,64.6,29.95,NW,322,0.0,0.0,95,0.01,,,0.02,WUHU216DAVISVP2,2013-08-29 06:39:00,
2013-08-29 02:44:00,66.0,64.5,29.96,NW,322,0.0,0.0,95,0.01,,,0.02,WUHU216DAVISVP2,2013-08-29 06:44:00,
2013-08-29 02:49:00,65.9,64.4,29.95,NW,322,0.0,0.0,95,0.01,,,0.02,WUHU216DAVISVP2,2013-08-29 06:49:00,
2013-08-29 02:54:00,65.9,64.7,29.95,NW,322,0.0,0.0,96,0.01,,,0.02,WUHU216DAVISVP2,2013-08-29 06:54:00,
2013-08-29 02:59:00,65.8,64.6,29.95,NW,322,0.0,0.0,96,0.01,,,0.02,WUHU216DAVISVP2,2013-08-29 06:59:00,
2013-08-29 03:00:00,65.8,64.6,29.95,North,0,0.0,0.0,96,0.01,,,0.02,WUHU216DAVISVP2,2013-08-29 07:00:00,
2013-08-29 03:04:00,65.8,64.6,29.95,NW,322,0.0,0.0,96,0.00,,,0.02,WUHU216DAVISVP2,2013-08-29 07:04:00,
2013-08-29 03:09:00,65.7,64.5,29.95,NW,322,0.0,0.0,96,0.00,,,0.02,WUHU216DAVISVP2,2013-08-29 07:09:00,
2013-08-29 03:14:00,65.6,64.4,29.95,NW,322,0.0,0.0,96,0.00,,,0.02,WUHU216DAVISVP2,2013-08-29 07:14:00,
2013-08-29 03:19:00,65.6,64.4,29.95,NW,322,0.0,1.0,96,0.00,,,0.02,WUHU216DAVISVP2,2013-08-29 07:19:00,
2013-08-29 03:24:00,65.6,64.4,29.95,NW,322,0.0,1.0,96,0.00,,,0.02,WUHU216DAVISVP2,2013-08-29 07:24:00,
2013-08-29 03:29:00,65.6,64.4,29.96,NW,322,0.0,1.0,96,0.00,,,0.02,WUHU216DAVISVP2,2013-08-29 07:29:00,
2013-08-29 03:30:00,65.6,64.4,29.96,NW,315,0.0,1.0,96,0.00,,,0.02,WUHU216DAVISVP2,2013-08-29 07:30:00,
2013-08-29 03:34:00,65.6,64.4,29.96,NW,322,0.0,1.0,96,0.00,,,0.02,WUHU216DAVISVP2,2013-08-29 07:34:00,
2013-08-29 03:39:00,65.6,64.4,29.96,NW,322,0.0,1.0,96,0.00,,,0.02,WUHU216DAVISVP2,2013-08-29 07:39:00,
2013-08-29 03:44:00,65.6,64.4,29.97,NW,322,0.0,1.0,96,0.00,,,0.02,WUHU216DAVISVP2,2013-08-29 07:44:00,
2013-08-29 03:49:00,65.6,64.4,29.97,NW,322,0.0,1.0,96,0.00,,,0.02,WUHU216DAVISVP2,2013-08-29 07:49:00,
2013-08-29 03:54:00,65.6,64.4,29.97,NW,322,1.5,2.0,96,0.00,,,0.02,WUHU216DAVISVP2,2013-08-29 07:54:00,
2013-08-29 03:59:00,65.6,64.7,29.97,NW,322,0.0,2.0,97,0.00,,,0.02,WUHU216DAVISVP2,2013-08-29 07:59:00,
2013-08-29 04:00:00,65.6,64.7,29.97,NW,315,0.0,2.0,97,0.00,,,0.02,WUHU216DAVISVP2,2013-08-29 08:00:00,
2013-08-29 04:04:00,65.6,64.7,29.98,NW,322,0.0,2.0,97,0.00,,,0.02,WUHU216DAVISVP2,2013-08-29 08:04:00,
2013-08-29 04:09:00,65.6,64.7,29.98,NW,322,0.0,2.0,97,0.00,,,0.02,WUHU216DAVISVP2,2013-08-29 08:09:00,
2013-08-29 04:14:00,65.6,64.7,29.98,NW,322,0.0,1.0,97,0.00,,,0.02,WUHU216DAVISVP2,2013-08-29 08:14:00,
2013-08-29 04:19:00,65.6,64.7,29.98,NW,322,0.0,0.0,97,0.00,,,0.02,WUHU216DAVISVP2,2013-08-29 08:19:00,
2013-08-29 04:24:00,65.6,64.7,29.99,ENE,63,0.0,4.0,97,0.00,,,0.02,WUHU216DAVISVP2,2013-08-29 08:24:00,
2013-08-29 04:29:00,65.6,64.7,29.99,ENE,63,0.0,4.0,97,0.00,,,0.02,WUHU216DAVISVP2,2013-08-29 08:29:00,
2013-08-29 04:30:00,65.6,64.7,29.99,ENE,68,0.0,4.0,97,0.00,,,0.02,WUHU216DAVISVP2,2013-08-29 08:30:00,
2013-08-29 04:34:00,65.6,64.7,29.99,ENE,58,1.2,4.0,97,0.00,,,0.02,WUHU216DAVISVP2,2013-08-29 08:34:00,
2013-08-29 04:39:00,65.6,64.7,29.99,NW,319,2.5,5.0,97,0.00,,,0.02,WUHU216DAVISVP2,2013-08-29 08:39:00,
2013-08-29 04:44:00,65.7,64.8,29.99,NNW,335,1.5,5.0,97,0.00,,,0.02,WUHU216DAVISVP2,2013-08-29 08:44:00,
2013-08-29 04:49:00,65.7,64.8,29.99,NNW,336,1.5,5.0,97,0.00,,,0.02,WUHU216DAVISVP2,2013-08-29 08:49:00,
2013-08-29 04:54:00,65.7,64.8,29.99,NNW,337,0.0,5.0,97,0.00,,,0.02,WUHU216DAVISVP2,2013-08-29 08:54:00,
2013-08-29 04:59:00,65.8,64.9,29.99,NNW,337,0.0,3.0,97,0.00,,,0.02,WUHU216DAVISVP2,2013-08-29 08:59:00,
2013-08-29 05:00:00,65.8,64.9,30.00,NNW,338,0.0,5.0,97,0.00,,,0.02,WUHU216DAVISVP2,2013-08-29 09:00:00,
2013-08-29 05:04:00,65.8,64.9,29.99,NNW,341,1.5,4.0,97,0.00,,,0.02,WUHU216DAVISVP2,2013-08-29 09:04:00,
2013-08-29 05:09:00,65.8,64.9,29.99,NNW,344,1.0,4.0,97,0.00,,,0.02,WUHU216DAVISVP2,2013-08-29 09:09:00,
2013-08-29 05:14:00,65.9,65.0,29.99,NNW,344,1.0,4.0,97,0.00,,,0.02,WUHU216DAVISVP2,2013-08-29 09:14:00,
2013-08-29 05:19:00,65.9,65.0,29.99,NNW,344,0.0,4.0,97,0.00,,,0.02,WUHU216DAVISVP2,2013-08-29 09:19:00,
2013-08-29 05:24:00,65.9,65.0,30.00,NNW,342,1.8,3.0,97,0.00,,,0.02,WUHU216DAVISVP2,2013-08-29 09:24:00,
2013-08-29 05:29:00,65.9,65.0,30.00,NNW,342,0.0,3.0,97,0.00,,,0.02,WUHU216DAVISVP2,2013-08-29 09:29:00,
2013-08-29 05:30:00,65.9,65.0,30.00,NNW,338,0.0,4.0,97,0.00,,,0.02,WUHU216DAVISVP2,2013-08-29 09:30:00,
2013-08-29 05:34:00,65.9,65.0,30.00,NNW,342,0.0,3.0,97,0.00,,,0.02,WUHU216DAVISVP2,2013-08-29 09:34:00,
2013-08-29 05:39:00,65.9,65.0,30.00,NNW,342,1.0,3.0,97,0.00,,,0.02,WUHU216DAVISVP2,2013-08-29 09:39:00,
2013-08-29 05:44:00,66.0,65.1,30.00,NNW,342,0.0,1.0,97,0.00,,,0.02,WUHU216DAVISVP2,2013-08-29 09:44:00,
2013-08-29 05:49:00,66.0,65.1,30.00,NE,49,2.0,4.0,97,0.00,,,0.02,WUHU216DAVISVP2,2013-08-29 09:49:00,
2013-08-29 05:54:00,66.0,65.1,30.00,NE,49,0.0,4.0,97,0.00,,,0.02,WUHU216DAVISVP2,2013-08-29 09:54:00,
2013-08-29 05:59:00,66.0,65.1,30.00,NE,36,1.0,4.0,97,0.00,,,0.02,WUHU216DAVISVP2,2013-08-29 09:59:00,
2013-08-29 06:00:00,66.0,65.1,30.00,NE,45,0.0,4.0,97,0.00,,,0.02,WUHU216DAVISVP2,2013-08-29 10:00:00,
2013-08-29 06:04:00,66.0,65.1,30.00,NNW,333,1.5,4.0,97,0.00,,,0.02,WUHU216DAVISVP2,2013-08-29 10:04:00,
2013-08-29 06:09:00,66.0,65.1,30.01,NW,306,1.0,4.0,97,0.00,,,0.02,WUHU216DAVISVP2,2013-08-29 10:09:00,
2013-08-29 06:14:00,66.0,65.1,30.01,NW,306,0.0,4.0,97,0.00,,,0.02,WUHU216DAVISVP2,2013-08-29 10:14:00,
2013-08-29 06:19:00,66.1,65.2,30.01,NW,306,0.0,4.0,97,0.00,,,0.02,WUHU216DAVISVP2,2013-08-29 10:19:00,
2013-08-29 06:24:00,66.1,64.9,30.01,NW,306,0.0,2.0,96,0.00,,,0.02,WUHU216DAVISVP2,2013-08-29 10:24:00,
2013-08-29 06:29:00,66.1,64.9,30.01,NW,306,0.0,0.0,96,0.00,,,0.02,WUHU216DAVISVP2,2013-08-29 10:29:00,
2013-08-29 06:30:00,66.1,64.9,30.01,NW,315,0.0,4.0,96,0.00,,,0.02,WUHU216DAVISVP2,2013-08-29 10:30:00,
2013-08-29 06:34:00,66.1,64.9,30.01,NW,306,0.0,1.0,96,0.00,,,0.02,WUHU216DAVISVP2,2013-08-29 10:34:00,
2013-08-29 06:39:00,66.1,64.9,30.02,NW,306,0.0,1.0,96,0.00,,,0.02,WUHU216DAVISVP2,2013-08-29 10:39:00,
2013-08-29 06:44:00,66.1,64.9,30.02,NW,306,0.0,1.0,96,0.00,,,0.02,WUHU216DAVISVP2,2013-08-29 10:44:00,
2013-08-29 06:49:00,66.1,64.9,30.02,NNW,338,1.8,5.0,96,0.00,,,0.02,WUHU216DAVISVP2,2013-08-29 10:49:00,
2013-08-29 06:54:00,66.0,64.8,30.02,ENE,59,3.0,5.0,96,0.00,,,0.02,WUHU216DAVISVP2,2013-08-29 10:54:00,
2013-08-29 06:59:00,65.9,64.7,30.02,ENE,64,1.7,5.0,96,0.00,,,0.02,WUHU216DAVISVP2,2013-08-29 10:59:00,
2013-08-29 07:00:00,65.9,64.7,30.02,ENE,68,0.0,5.0,96,0.00,,,0.02,WUHU216DAVISVP2,2013-08-29 11:00:00,
2013-08-29 07:04:00,65.9,64.7,30.02,NE,46,0.0,5.0,96,0.00,,,0.02,WUHU216DAVISVP2,2013-08-29 11:04:00,
2013-08-29 07:09:00,65.9,64.7,30.03,NE,46,0.0,4.0,96,0.00,,,0.02,WUHU216DAVISVP2,2013-08-29 11:09:00,
2013-08-29 07:14:00,66.0,64.5,30.03,NE,46,1.0,3.0,95,0.00,,,0.02,WUHU216DAVISVP2,2013-08-29 11:14:00,
2013-08-29 07:19:00,66.0,64.8,30.03,NE,46,0.0,3.0,96,0.00,,,0.02,WUHU216DAVISVP2,2013-08-29 11:19:00,
2013-08-29 07:24:00,66.1,64.6,30.03,NE,46,0.0,1.0,95,0.00,,,0.02,WUHU216DAVISVP2,2013-08-29 11:24:00,
2013-08-29 07:29:00,66.1,64.6,30.03,NE,46,0.0,1.0,95,0.00,,,0.02,WUHU216DAVISVP2,2013-08-29 11:29:00,
2013-08-29 07:30:00,66.1,64.6,30.03,NE,45,0.0,3.0,95,0.00,,,0.02,WUHU216DAVISVP2,2013-08-29 11:30:00,
2013-08-29 07:34:00,66.1,64.6,30.03,NE,46,0.0,0.0,95,0.00,,,0.02,WUHU216DAVISVP2,2013-08-29 11:34:00,
2013-08-29 07:39:00,66.2,65.0,30.04,NE,46,0.0,0.0,96,0.00,,,0.02,WUHU216DAVISVP2,2013-08-29 11:39:00,
2013-08-29 07:44:00,66.1,64.6,30.04,NE,40,1.5,2.0,95,0.00,,,0.02,WUHU216DAVISVP2,2013-08-29 11:44:00,
2013-08-29 07:49:00,66.1,64.6,30.04,NE,35,2.0,2.0,95,0.00,,,0.02,WUHU216DAVISVP2,2013-08-29 11:49:00,
2013-08-29 07:54:00,66.0,64.5,30.04,NE,35,1.0,2.0,95,0.00,,,0.02,WUHU216DAVISVP2,2013-08-29 11:54:00,
2013-08-29 07:59:00,65.9,64.4,30.04,NE,35,1.0,2.0,95,0.00,,,0.02,WUHU216DAVISVP2,2013-08-29 11:59:00,
2013-08-29 08:00:00,65.9,64.4,30.04,NE,45,0.0,2.0,95,0.00,,,0.02,WUHU216DAVISVP2,2013-08-29 12:00:00,
2013-08-29 08:04:00,66.0,64.5,30.04,NE,35,0.0,2.0,95,0.00,,,0.02,WUHU216DAVISVP2,2013-08-29 12:04:00,
2013-08-29 08:09:00,65.9,64.7,30.05,NNE,31,0.0,2.0,96,0.00,,,0.02,WUHU216DAVISVP2,2013-08-29 12:09:00,
2013-08-29 08:14:00,65.9,64.7,30.05,NNE,31,0.0,2.0,96,0.00,,,0.02,WUHU216DAVISVP2,2013-08-29 12:14:00,
2013-08-29 08:19:00,65.9,64.7,30.05,NNE,31,1.0,2.0,96,0.00,,,0.02,WUHU216DAVISVP2,2013-08-29 12:19:00,
2013-08-29 08:24:00,65.9,64.7,30.05,NNE,31,0.0,1.0,96,0.00,,,0.02,WUHU216DAVISVP2,2013-08-29 12:24:00,
2013-08-29 08:29:00,65.9,64.7,30.05,NNE,33,1.7,2.0,96,0.00,,,0.02,WUHU216DAVISVP2,2013-08-29 12:29:00,
2013-08-29 08:30:00,65.9,64.7,30.05,NNE,23,0.0,2.0,96,0.00,,,0.02,WUHU216DAVISVP2,2013-08-29 12:30:00,
2013-08-29 08:34:00,65.9,64.7,30.05,NNE,32,0.0,2.0,96,0.00,,,0.02,WUHU216DAVISVP2,2013-08-29 12:34:00,
2013-08-29 08:39:00,65.9,64.7,30.05,NW,319,1.6,5.0,96,0.00,,,0.02,WUHU216DAVISVP2,2013-08-29 12:39:00,
2013-08-29 08:44:00,66.0,64.8,30.04,NW,321,0.0,5.0,96,0.00,,,0.02,WUHU216DAVISVP2,2013-08-29 12:44:00,
2013-08-29 08:49:00,66.1,64.9,30.04,NNW,339,1.4,5.0,96,0.00,,,0.02,WUHU216DAVISVP2,2013-08-29 12:49:00,
2013-08-29 08:54:00,66.0,64.8,30.05,WNW,294,2.2,5.0,96,0.00,,,0.02,WUHU216DAVISVP2,2013-08-29 12:54:00,
2013-08-29 08:59:00,65.9,64.4,30.05,WNW,283,3.0,7.0,95,0.00,,,0.02,WUHU216DAVISVP2,2013-08-29 12:59:00,
2013-08-29 09:00:00,65.8,64.3,30.05,NNW,338,0.0,7.0,95,0.00,,,0.02,WUHU216DAVISVP2,2013-08-29 13:00:00,
2013-08-29 09:04:00,65.8,64.3,30.05,NNE,20,3.3,7.0,95,0.00,,,0.02,WUHU216DAVISVP2,2013-08-29 13:04:00,
2013-08-29 09:09:00,65.7,64.2,30.06,NNE,28,2.5,7.0,95,0.00,,,0.02,WUHU216DAVISVP2,2013-08-29 13:09:00,
2013-08-29 09:14:00,65.6,64.1,30.06,NNW,337,1.0,7.0,95,0.00,,,0.02,WUHU216DAVISVP2,2013-08-29 13:14:00,
2013-08-29 09:19:00,65.3,63.5,30.06,ESE,116,3.0,9.0,94,0.00,,,0.02,WUHU216DAVISVP2,2013-08-29 13:19:00,
2013-08-29 09:24:00,65.1,63.3,30.06,West,267,2.0,9.0,94,0.00,,,0.02,WUHU216DAVISVP2,2013-08-29 13:24:00,
2013-08-29 09:29:00,65.0,63.2,30.06,NE,46,2.5,9.0,94,0.00,,,0.02,WUHU216DAVISVP2,2013-08-29 13:29:00,
2013-08-29 09:30:00,65.0,63.2,30.06,North,0,1.0,9.0,94,0.00,,,0.02,WUHU216DAVISVP2,2013-08-29 13:30:00,
2013-08-29 09:34:00,65.0,63.2,30.06,WNW,289,1.5,9.0,94,0.00,,,0.02,WUHU216DAVISVP2,2013-08-29 13:34:00,
2013-08-29 09:39:00,65.0,62.9,30.06,NE,55,3.2,8.0,93,0.00,,,0.02,WUHU216DAVISVP2,2013-08-29 13:39:00,
2013-08-29 09:44:00,65.0,62.9,30.06,NNE,19,1.0,8.0,93,0.00,,,0.02,WUHU216DAVISVP2,2013-08-29 13:44:00,
2013-08-29 09:49:00,64.9,62.8,30.06,NE,51,7.0,8.0,93,0.00,,,0.02,WUHU216DAVISVP2,2013-08-29 13:49:00,
2013-08-29 09:54:00,64.7,62.6,30.07,ENE,65,1.0,8.0,93,0.00,,,0.02,WUHU216DAVISVP2,2013-08-29 13:54:00,
2013-08-29 09:59:00,64.7,62.6,30.07,East,91,2.3,8.0,93,0.00,,,0.02,WUHU216DAVISVP2,2013-08-29 13:59:00,
2013-08-29 10:00:00,64.7,62.6,30.07,WNW,293,1.0,8.0,93,0.00,,,0.02,WUHU216DAVISVP2,2013-08-29 14:00:00,
2013-08-29 10:04:00,64.7,62.6,30.07,WSW,242,1.9,9.0,93,0.00,,,0.02,WUHU216DAVISVP2,2013-08-29 14:04:00,
2013-08-29 10:09:00,64.6,62.5,30.07,West,259,2.0,9.0,93,0.00,,,0.02,WUHU216DAVISVP2,2013-08-29 14:09:00,
2013-08-29 10:14:00,64.6,62.5,30.07,NNW,339,3.0,9.0,93,0.00,,,0.02,WUHU216DAVISVP2,2013-08-29 14:14:00,
2013-08-29 10:19:00,64.5,62.4,30.07,SW,233,3.3,9.0,93,0.00,,,0.02,WUHU216DAVISVP2,2013-08-29 14:19:00,
2013-08-29 10:24:00,64.4,62.3,30.07,East,96,3.0,9.0,93,0.00,,,0.02,WUHU216DAVISVP2,2013-08-29 14:24:00,
2013-08-29 10:29:00,64.3,62.2,30.06,NE,40,2.8,9.0,93,0.00,,,0.02,WUHU216DAVISVP2,2013-08-29 14:29:00,
2013-08-29 10:30:00,64.3,62.2,30.07,SW,225,1.0,9.0,93,0.00,,,0.02,WUHU216DAVISVP2,2013-08-29 14:30:00,
2013-08-29 10:34:00,64.4,62.3,30.07,NNW,331,2.0,9.0,93,0.00,,,0.02,WUHU216DAVISVP2,2013-08-29 14:34:00,
2013-08-29 10:39:00,64.3,61.9,30.07,ENE,77,4.7,10.0,92,0.00,,,0.02,WUHU216DAVISVP2,2013-08-29 14:39:00,
2013-08-29 10:44:00,64.3,61.9,30.07,ENE,69,2.6,10.0,92,0.00,,,0.02,WUHU216DAVISVP2,2013-08-29 14:44:00,
2013-08-29 10:49:00,64.5,62.1,30.08,ESE,104,2.2,10.0,92,0.00,,,0.02,WUHU216DAVISVP2,2013-08-29 14:49:00,
2013-08-29 10:54:00,64.6,62.2,30.08,NNE,15,1.0,10.0,92,0.00,,,0.02,WUHU216DAVISVP2,2013-08-29 14:54:00,
2013-08-29 10:59:00,64.7,62.3,30.07,NNE,26,2.3,8.0,92,0.00,,,0.02,WUHU216DAVISVP2,2013-08-29 14:59:00,
2013-08-29 11:00:00,64.7,62.3,30.07,ENE,68,1.0,10.0,92,0.00,,,0.02,WUHU216DAVISVP2,2013-08-29 15:00:00,
2013-08-29 11:04:00,64.7,62.3,30.08,NW,311,2.5,8.0,92,0.00,,,0.02,WUHU216DAVISVP2,2013-08-29 15:04:00,
2013-08-29 11:09:00,64.8,62.4,30.08,NNW,342,1.5,8.0,92,0.00,,,0.02,WUHU216DAVISVP2,2013-08-29 15:09:00,
2013-08-29 11:14:00,64.7,62.0,30.08,South,178,2.0,8.0,91,0.00,,,0.02,WUHU216DAVISVP2,2013-08-29 15:14:00,
2013-08-29 11:19:00,64.7,62.0,30.08,SE,128,2.0,8.0,91,0.00,,,0.02,WUHU216DAVISVP2,2013-08-29 15:19:00,
2013-08-29 11:24:00,64.6,61.9,30.08,ENE,75,1.5,8.0,91,0.00,,,0.02,WUHU216DAVISVP2,2013-08-29 15:24:00,
2013-08-29 11:29:00,64.7,62.0,30.08,NE,41,2.6,7.0,91,0.00,,,0.02,WUHU216DAVISVP2,2013-08-29 15:29:00,
2013-08-29 11:30:00,64.7,62.0,30.08,ENE,68,1.0,8.0,91,0.00,,,0.02,WUHU216DAVISVP2,2013-08-29 15:30:00,
2013-08-29 11:34:00,64.7,62.0,30.08,ENE,59,1.0,7.0,91,0.00,,,0.02,WUHU216DAVISVP2,2013-08-29 15:34:00,
2013-08-29 11:39:00,64.7,61.7,30.08,East,91,3.0,8.0,90,0.00,,,0.02,WUHU216DAVISVP2,2013-08-29 15:39:00,
2013-08-29 11:44:00,64.8,62.4,30.08,ESE,115,0.0,8.0,92,0.00,,,0.02,WUHU216DAVISVP2,2013-08-29 15:44:00,
2013-08-29 11:49:00,64.8,61.8,30.08,ESE,115,0.0,8.0,90,0.00,,,0.02,WUHU216DAVISVP2,2013-08-29 15:49:00,
2013-08-29 11:54:00,64.9,62.2,30.08,East,90,1.0,8.0,91,0.00,,,0.02,WUHU216DAVISVP2,2013-08-29 15:54:00,
2013-08-29 11:59:00,64.9,61.9,30.08,ENE,59,2.4,12.0,90,0.00,,,0.02,WUHU216DAVISVP2,2013-08-29 15:59:00,
2013-08-29 12:00:00,64.9,61.9,30.08,ENE,68,1.0,12.0,90,0.00,,,0.02,WUHU216DAVISVP2,2013-08-29 16:00:00,
2013-08-29 12:04:00,64.9,61.9,30.08,ENE,58,3.0,12.0,90,0.00,,,0.02,WUHU216DAVISVP2,2013-08-29 16:04:00,
2013-08-29 12:09:00,64.9,61.9,30.08,ENE,65,2.0,12.0,90,0.00,,,0.02,WUHU216DAVISVP2,2013-08-29 16:09:00,
2013-08-29 12:14:00,64.9,61.6,30.08,ENE,60,1.8,6.0,89,0.00,,,0.02,WUHU216DAVISVP2,2013-08-29 16:14:00,
2013-08-29 12:19:00,65.0,61.7,30.08,NE,53,3.0,6.0,89,0.00,,,0.02,WUHU216DAVISVP2,2013-08-29 16:19:00,
2013-08-29 12:24:00,65.1,61.8,30.08,NE,48,2.0,6.0,89,0.00,,,0.02,WUHU216DAVISVP2,2013-08-29 16:24:00,
2013-08-29 12:29:00,65.1,61.8,30.08,NE,50,1.9,6.0,89,0.00,,,0.02,WUHU216DAVISVP2,2013-08-29 16:29:00,
2013-08-29 12:30:00,65.1,61.8,30.08,ENE,68,1.0,6.0,89,0.00,,,0.02,WUHU216DAVISVP2,2013-08-29 16:30:00,
2013-08-29 12:34:00,65.1,61.8,30.07,SSE,148,1.3,6.0,89,0.00,,,0.02,WUHU216DAVISVP2,2013-08-29 16:34:00,
2013-08-29 12:39:00,65.1,61.8,30.07,NE,50,3.2,8.0,89,0.00,,,0.02,WUHU216DAVISVP2,2013-08-29 16:39:00,
2013-08-29 12:44:00,65.1,61.8,30.08,ENE,77,2.8,8.0,89,0.00,,,0.02,WUHU216DAVISVP2,2013-08-29 16:44:00,
2013-08-29 12:49:00,65.1,61.4,30.08,ENE,60,4.0,7.0,88,0.00,,,0.02,WUHU216DAVISVP2,2013-08-29 16:49:00,
2013-08-29 12:54:00,65.1,61.8,30.08,East,97,3.0,7.0,89,0.00,,,0.02,WUHU216DAVISVP2,2013-08-29 16:54:00,
2013-08-29 12:59:00,65.0,61.7,30.08,ENE,61,2.0,6.0,89,0.00,,,0.02,WUHU216DAVISVP2,2013-08-29 16:59:00,
2013-08-29 13:00:00,65.0,61.7,30.07,ENE,68,1.0,8.0,89,0.00,,,0.02,WUHU216DAVISVP2,2013-08-29 17:00:00,
2013-08-29 13:04:00,65.0,61.7,30.07,ENE,77,2.8,8.0,89,0.00,,,0.02,WUHU216DAVISVP2,2013-08-29 17:04:00,
2013-08-29 13:09:00,64.8,61.2,30.08,East,85,3.0,8.0,88,0.00,,,0.02,WUHU216DAVISVP2,2013-08-29 17:09:00,
2013-08-29 13:14:00,64.7,61.4,30.08,ESE,104,3.6,9.0,89,0.00,,,0.02,WUHU216DAVISVP2,2013-08-29 17:14:00,
2013-08-29 13:19:00,64.6,61.0,30.08,East,89,3.4,10.0,88,0.00,,,0.02,WUHU216DAVISVP2,2013-08-29 17:19:00,
2013-08-29 13:24:00,64.5,61.2,30.08,ESE,117,2.6,10.0,89,0.00,,,0.02,WUHU216DAVISVP2,2013-08-29 17:24:00,
2013-08-29 13:29:00,64.5,60.9,30.08,East,83,3.8,10.0,88,0.00,,,0.02,WUHU216DAVISVP2,2013-08-29 17:29:00,
2013-08-29 13:30:00,64.5,60.9,30.08,East,90,2.0,10.0,88,0.00,,,0.02,WUHU216DAVISVP2,2013-08-29 17:30:00,
2013-08-29 13:34:00,64.4,60.8,30.08,ENE,66,2.9,10.0,88,0.00,,,0.02,WUHU216DAVISVP2,2013-08-29 17:34:00,
2013-08-29 13:39:00,64.4,61.1,30.08,East,101,1.6,9.0,89,0.00,,,0.02,WUHU216DAVISVP2,2013-08-29 17:39:00,
2013-08-29 13:44:00,64.4,60.8,30.07,East,88,2.1,9.0,88,0.00,,,0.02,WUHU216DAVISVP2,2013-08-29 17:44:00,
2013-08-29 13:49:00,64.4,61.1,30.07,East,90,1.0,9.0,89,0.00,,,0.02,WUHU216DAVISVP2,2013-08-29 17:49:00,
2013-08-29 13:54:00,64.5,60.9,30.07,East,83,4.4,9.0,88,0.00,,,0.02,WUHU216DAVISVP2,2013-08-29 17:54:00,
2013-08-29 13:59:00,64.4,60.8,30.08,ENE,73,3.9,9.0,88,0.00,,,0.02,WUHU216DAVISVP2,2013-08-29 17:59:00,
2013-08-29 14:00:00,64.4,60.8,30.08,East,90,2.0,9.0,88,0.00,,,0.02,WUHU216DAVISVP2,2013-08-29 18:00:00,
2013-08-29 14:04:00,64.3,60.7,30.07,ESE,104,3.4,9.0,88,0.00,,,0.02,WUHU216DAVISVP2,2013-08-29 18:04:00,
2013-08-29 14:09:00,64.3,61.0,30.07,ESE,103,1.0,9.0,89,0.00,,,0.02,WUHU216DAVISVP2,2013-08-29 18:09:00,
2013-08-29 14:14:00,64.4,61.1,30.07,ESE,111,3.0,9.0,89,0.00,,,0.02,WUHU216DAVISVP2,2013-08-29 18:14:00,
2013-08-29 14:19:00,64.3,61.0,30.07,NE,46,2.7,8.0,89,0.00,,,0.02,WUHU216DAVISVP2,2013-08-29 18:19:00,
2013-08-29 14:24:00,64.3,61.3,30.07,ENE,77,0.0,7.0,90,0.00,,,0.02,WUHU216DAVISVP2,2013-08-29 18:24:00,
2013-08-29 14:29:00,64.2,61.5,30.07,ENE,77,0.0,6.0,91,0.00,,,0.02,WUHU216DAVISVP2,2013-08-29 18:29:00,
2013-08-29 14:30:00,64.2,61.5,30.07,ESE,113,1.0,8.0,91,0.00,,,0.02,WUHU216DAVISVP2,2013-08-29 18:30:00,
2013-08-29 14:34:00,64.1,61.4,30.07,ENE,71,1.3,6.0,91,0.00,,,0.02,WUHU216DAVISVP2,2013-08-29 18:34:00,
2013-08-29 14:39:00,64.0,61.3,30.07,ENE,71,1.0,4.0,91,0.00,,,0.02,WUHU216DAVISVP2,2013-08-29 18:39:00,
2013-08-29 14:44:00,64.0,61.3,30.07,ENE,70,1.0,3.0,91,0.00,,,0.02,WUHU216DAVISVP2,2013-08-29 18:44:00,
2013-08-29 14:49:00,63.9,61.2,30.07,ENE,73,1.0,4.0,91,0.00,,,0.02,WUHU216DAVISVP2,2013-08-29 18:49:00,
2013-08-29 14:54:00,63.8,61.1,30.07,East,93,2.3,6.0,91,0.00,,,0.02,WUHU216DAVISVP2,2013-08-29 18:54:00,
2013-08-29 14:59:00,63.7,61.0,30.07,ESE,111,1.5,9.0,91,0.00,,,0.02,WUHU216DAVISVP2,2013-08-29 18:59:00,
2013-08-29 15:00:00,63.7,61.0,30.07,ENE,68,1.0,9.0,91,0.00,,,0.02,WUHU216DAVISVP2,2013-08-29 19:00:00,
2013-08-29 15:04:00,63.6,60.6,30.07,ESE,105,1.8,9.0,90,0.00,,,0.02,WUHU216DAVISVP2,2013-08-29 19:04:00,
2013-08-29 15:09:00,63.6,60.6,30.07,ENE,65,3.0,9.0,90,0.00,,,0.02,WUHU216DAVISVP2,2013-08-29 19:09:00,
2013-08-29 15:14:00,63.7,60.7,30.07,ESE,110,3.0,9.0,90,0.00,,,0.02,WUHU216DAVISVP2,2013-08-29 19:14:00,
2013-08-29 15:19:00,63.7,60.7,30.07,East,91,2.8,8.0,90,0.00,,,0.02,WUHU216DAVISVP2,2013-08-29 19:19:00,
2013-08-29 15:24:00,63.8,60.8,30.06,East,90,1.1,8.0,90,0.00,,,0.02,WUHU216DAVISVP2,2013-08-29 19:24:00,
2013-08-29 15:29:00,64.0,61.0,30.06,ESE,104,1.7,6.0,90,0.00,,,0.02,WUHU216DAVISVP2,2013-08-29 19:29:00,
2013-08-29 15:30:00,64.0,61.0,30.06,East,90,1.0,8.0,90,0.00,,,0.02,WUHU216DAVISVP2,2013-08-29 19:30:00,
2013-08-29 15:34:00,64.1,60.8,30.06,ESE,108,2.2,6.0,89,0.00,,,0.02,WUHU216DAVISVP2,2013-08-29 19:34:00,
2013-08-29 15:39:00,64.2,60.9,30.06,ESE,102,1.5,6.0,89,0.00,,,0.02,WUHU216DAVISVP2,2013-08-29 19:39:00,
2013-08-29 15:44:00,64.3,61.0,30.06,East,96,1.0,6.0,89,0.00,,,0.02,WUHU216DAVISVP2,2013-08-29 19:44:00,
2013-08-29 15:49:00,64.4,61.1,30.07,East,98,2.2,6.0,89,0.00,,,0.02,WUHU216DAVISVP2,2013-08-29 19:49:00,
2013-08-29 15:54:00,64.7,61.1,30.07,East,95,2.7,4.0,88,0.00,,,0.02,WUHU216DAVISVP2,2013-08-29 19:54:00,
2013-08-29 15:59:00,64.8,60.8,30.07,NE,49,3.0,5.0,87,0.00,,,0.02,WUHU216DAVISVP2,2013-08-29 19:59:00,
2013-08-29 16:00:00,64.8,60.8,30.07,East,90,1.0,6.0,87,0.00,,,0.02,WUHU216DAVISVP2,2013-08-29 20:00:00,
2013-08-29 16:04:00,64.8,60.8,30.07,ESE,104,1.0,6.0,87,0.00,,,0.02,WUHU216DAVISVP2,2013-08-29 20:04:00,
2013-08-29 16:09:00,64.9,60.9,30.07,ENE,71,2.5,6.0,87,0.00,,,0.02,WUHU216DAVISVP2,2013-08-29 20:09:00,
2013-08-29 16:14:00,65.1,61.1,30.06,ENE,71,1.4,6.0,87,0.00,,,0.02,WUHU216DAVISVP2,2013-08-29 20:14:00,
2013-08-29 16:19:00,65.2,61.2,30.07,ENE,71,1.5,6.0,87,0.00,,,0.02,WUHU216DAVISVP2,2013-08-29 20:19:00,
2013-08-29 16:24:00,65.2,61.2,30.06,ENE,71,0.0,6.0,87,0.00,,,0.02,WUHU216DAVISVP2,2013-08-29 20:24:00,
2013-08-29 16:29:00,65.1,60.8,30.07,ENE,76,1.5,5.0,86,0.00,,,0.02,WUHU216DAVISVP2,2013-08-29 20:29:00,
2013-08-29 16:30:00,65.0,60.7,30.07,ENE,68,0.0,6.0,86,0.00,,,0.02,WUHU216DAVISVP2,2013-08-29 20:30:00,
2013-08-29 16:34:00,65.0,61.0,30.07,ENE,76,1.0,5.0,87,0.00,,,0.02,WUHU216DAVISVP2,2013-08-29 20:34:00,
2013-08-29 16:39:00,65.1,61.1,30.07,ENE,76,1.0,5.0,87,0.00,,,0.02,WUHU216DAVISVP2,2013-08-29 20:39:00,
2013-08-29 16:44:00,65.1,61.1,30.07,ENE,76,1.0,5.0,87,0.00,,,0.02,WUHU216DAVISVP2,2013-08-29 20:44:00,
2013-08-29 16:49:00,65.1,60.8,30.07,ENE,76,0.0,3.0,86,0.00,,,0.02,WUHU216DAVISVP2,2013-08-29 20:49:00,
2013-08-29 16:54:00,65.1,61.1,30.07,ENE,76,0.0,3.0,87,0.00,,,0.02,WUHU216DAVISVP2,2013-08-29 20:54:00,
2013-08-29 16:59:00,65.0,60.7,30.07,ENE,76,1.7,3.0,86,0.00,,,0.02,WUHU216DAVISVP2,2013-08-29 20:59:00,
2013-08-29 17:00:00,65.0,61.0,30.07,ENE,68,0.0,3.0,87,0.00,,,0.02,WUHU216DAVISVP2,2013-08-29 21:00:00,
2013-08-29 17:04:00,65.0,61.0,30.07,ENE,76,1.7,3.0,87,0.00,,,0.02,WUHU216DAVISVP2,2013-08-29 21:04:00,
2013-08-29 17:09:00,64.9,60.9,30.07,ENE,76,1.4,3.0,87,0.00,,,0.02,WUHU216DAVISVP2,2013-08-29 21:09:00,
2013-08-29 17:14:00,64.8,60.8,30.07,ENE,76,0.0,3.0,87,0.00,,,0.02,WUHU216DAVISVP2,2013-08-29 21:14:00,
2013-08-29 17:19:00,64.7,61.1,30.07,ENE,76,1.3,3.0,88,0.00,,,0.02,WUHU216DAVISVP2,2013-08-29 21:19:00,
2013-08-29 17:24:00,64.5,60.9,30.07,East,80,2.6,5.0,88,0.00,,,0.02,WUHU216DAVISVP2,2013-08-29 21:24:00,
2013-08-29 17:29:00,64.4,60.8,30.07,East,82,1.3,5.0,88,0.00,,,0.02,WUHU216DAVISVP2,2013-08-29 21:29:00,
2013-08-29 17:30:00,64.4,60.8,30.07,ENE,68,1.0,5.0,88,0.00,,,0.02,WUHU216DAVISVP2,2013-08-29 21:30:00,
2013-08-29 17:34:00,64.3,60.7,30.07,East,82,2.2,5.0,88,0.00,,,0.02,WUHU216DAVISVP2,2013-08-29 21:34:00,
2013-08-29 17:39:00,64.1,60.8,30.07,East,82,0.0,5.0,89,0.00,,,0.02,WUHU216DAVISVP2,2013-08-29 21:39:00,
2013-08-29 17:44:00,64.0,60.7,30.07,East,82,2.0,4.0,89,0.00,,,0.02,WUHU216DAVISVP2,2013-08-29 21:44:00,
2013-08-29 17:49:00,64.0,60.7,30.06,East,83,2.0,4.0,89,0.00,,,0.02,WUHU216DAVISVP2,2013-08-29 21:49:00,
2013-08-29 17:54:00,64.0,60.7,30.06,East,84,1.5,4.0,89,0.00,,,0.02,WUHU216DAVISVP2,2013-08-29 21:54:00,
2013-08-29 17:59:00,63.9,60.3,30.06,East,85,2.0,4.0,88,0.00,,,0.02,WUHU216DAVISVP2,2013-08-29 21:59:00,
2013-08-29 18:00:00,63.9,60.6,30.06,East,90,1.0,4.0,89,0.00,,,0.02,WUHU216DAVISVP2,2013-08-29 22:00:00,
2013-08-29 18:04:00,64.0,60.7,30.06,East,85,0.0,4.0,89,0.00,,,0.02,WUHU216DAVISVP2,2013-08-29 22:04:00,
2013-08-29 18:09:00,64.0,60.7,30.06,East,85,1.6,3.0,89,0.00,,,0.02,WUHU216DAVISVP2,2013-08-29 22:09:00,
2013-08-29 18:14:00,64.0,60.7,30.06,East,85,1.6,3.0,89,0.00,,,0.02,WUHU216DAVISVP2,2013-08-29 22:14:00,
2013-08-29 18:19:00,64.0,60.7,30.06,East,85,0.0,3.0,89,0.00,,,0.02,WUHU216DAVISVP2,2013-08-29 22:19:00,
2013-08-29 18:24:00,63.9,60.6,30.06,East,89,2.3,4.0,89,0.00,,,0.02,WUHU216DAVISVP2,2013-08-29 22:24:00,
2013-08-29 18:29:00,63.9,60.6,30.05,East,90,0.0,4.0,89,0.00,,,0.02,WUHU216DAVISVP2,2013-08-29 22:29:00,
2013-08-29 18:30:00,63.9,60.6,30.05,East,90,0.0,4.0,89,0.00,,,0.02,WUHU216DAVISVP2,2013-08-29 22:30:00,
2013-08-29 18:34:00,63.9,60.6,30.05,East,90,1.0,4.0,89,0.00,,,0.02,WUHU216DAVISVP2,2013-08-29 22:34:00,
2013-08-29 18:39:00,64.0,60.7,30.05,East,92,2.6,6.0,89,0.00,,,0.02,WUHU216DAVISVP2,2013-08-29 22:39:00,
2013-08-29 18:44:00,63.9,60.6,30.05,East,97,1.3,6.0,89,0.00,,,0.02,WUHU216DAVISVP2,2013-08-29 22:44:00,
2013-08-29 18:49:00,64.0,60.7,30.05,East,100,1.9,6.0,89,0.00,,,0.02,WUHU216DAVISVP2,2013-08-29 22:49:00,
2013-08-29 18:54:00,63.9,60.3,30.06,East,100,1.7,6.0,88,0.00,,,0.02,WUHU216DAVISVP2,2013-08-29 22:54:00,
2013-08-29 18:59:00,63.9,60.3,30.06,East,100,0.0,3.0,88,0.00,,,0.02,WUHU216DAVISVP2,2013-08-29 22:59:00,
2013-08-29 19:00:00,63.9,60.3,30.06,East,90,1.0,6.0,88,0.00,,,0.02,WUHU216DAVISVP2,2013-08-29 23:00:00,
2013-08-29 19:04:00,63.9,60.3,30.05,East,100,0.0,3.0,88,0.00,,,0.02,WUHU216DAVISVP2,2013-08-29 23:04:00,
2013-08-29 19:09:00,63.8,60.2,30.06,East,100,3.0,3.0,88,0.00,,,0.02,WUHU216DAVISVP2,2013-08-29 23:09:00,
2013-08-29 19:14:00,63.5,59.9,30.06,East,100,0.0,3.0,88,0.00,,,0.02,WUHU216DAVISVP2,2013-08-29 23:14:00,
2013-08-29 19:19:00,63.4,59.8,30.05,East,100,0.0,3.0,88,0.00,,,0.02,WUHU216DAVISVP2,2013-08-29 23:19:00,
2013-08-29 19:24:00,63.2,59.9,30.05,East,100,0.0,3.0,89,0.00,,,0.02,WUHU216DAVISVP2,2013-08-29 23:24:00,
2013-08-29 19:29:00,63.0,59.7,30.06,East,100,0.0,2.0,89,0.00,,,0.02,WUHU216DAVISVP2,2013-08-29 23:29:00,
2013-08-29 19:30:00,62.9,59.6,30.06,East,90,0.0,3.0,89,0.00,,,0.02,WUHU216DAVISVP2,2013-08-29 23:30:00,
2013-08-29 19:34:00,62.8,59.5,30.05,East,100,0.0,2.0,89,0.00,,,0.02,WUHU216DAVISVP2,2013-08-29 23:34:00,
2013-08-29 19:39:00,62.6,59.6,30.06,East,100,0.0,0.0,90,0.00,,,0.02,WUHU216DAVISVP2,2013-08-29 23:39:00,
2013-08-29 19:44:00,62.5,59.5,30.06,East,100,0.0,0.0,90,0.00,,,0.02,WUHU216DAVISVP2,2013-08-29 23:44:00,
2013-08-29 19:49:00,62.4,59.7,30.06,East,100,0.0,0.0,91,0.00,,,0.02,WUHU216DAVISVP2,2013-08-29 23:49:00,
2013-08-29 19:54:00,62.3,59.6,30.06,East,100,0.0,0.0,91,0.00,,,0.02,WUHU216DAVISVP2,2013-08-29 23:54:00,
2013-08-29 19:59:00,62.2,59.5,30.06,East,100,0.0,0.0,91,0.00,,,0.02,WUHU216DAVISVP2,2013-08-29 23:59:00,
2013-08-29 20:00:00,62.2,59.5,30.06,North,0,0.0,0.0,91,0.00,,,0.02,WUHU216DAVISVP2,2013-08-30 00:00:00,
2013-08-29 20:04:00,62.1,59.4,30.06,East,100,0.0,0.0,91,0.00,,,0.02,WUHU216DAVISVP2,2013-08-30 00:04:00,
2013-08-29 20:09:00,62.1,59.7,30.06,East,100,0.0,0.0,92,0.00,,,0.02,WUHU216DAVISVP2,2013-08-30 00:09:00,
2013-08-29 20:14:00,62.0,59.6,30.06,East,100,0.0,0.0,92,0.00,,,0.02,WUHU216DAVISVP2,2013-08-30 00:14:00,
2013-08-29 20:19:00,62.0,59.6,30.06,East,100,0.0,0.0,92,0.00,,,0.02,WUHU216DAVISVP2,2013-08-30 00:19:00,
2013-08-29 20:24:00,62.1,59.7,30.06,East,100,0.0,0.0,92,0.00,,,0.02,WUHU216DAVISVP2,2013-08-30 00:24:00,
2013-08-29 20:29:00,62.0,59.6,30.06,East,100,0.0,0.0,92,0.00,,,0.02,WUHU216DAVISVP2,2013-08-30 00:29:00,
2013-08-29 20:30:00,62.0,59.6,30.06,North,0,0.0,0.0,92,0.00,,,0.02,WUHU216DAVISVP2,2013-08-30 00:30:00,
2013-08-29 20:34:00,61.9,59.5,30.06,East,100,0.0,0.0,92,0.00,,,0.02,WUHU216DAVISVP2,2013-08-30 00:34:00,
2013-08-29 20:39:00,62.0,59.6,30.06,East,100,0.0,0.0,92,0.00,,,0.02,WUHU216DAVISVP2,2013-08-30 00:39:00,
2013-08-29 20:44:00,61.9,59.5,30.06,East,100,0.0,0.0,92,0.00,,,0.02,WUHU216DAVISVP2,2013-08-30 00:44:00,
2013-08-29 20:49:00,62.0,59.6,30.06,East,100,0.0,0.0,92,0.00,,,0.02,WUHU216DAVISVP2,2013-08-30 00:49:00,
2013-08-29 20:54:00,62.0,59.9,30.06,East,100,0.0,0.0,93,0.00,,,0.02,WUHU216DAVISVP2,2013-08-30 00:54:00,
2013-08-29 20:59:00,62.0,59.9,30.07,East,100,0.0,0.0,93,0.00,,,0.02,WUHU216DAVISVP2,2013-08-30 00:59:00,
2013-08-29 21:00:00,62.0,60.0,30.07,North,0,0.0,0.0,93,0.00,,,0.02,WUHU216DAVISVP2,2013-08-30 01:00:00,
2013-08-29 21:04:00,62.0,59.9,30.07,East,100,0.0,0.0,93,0.00,,,0.02,WUHU216DAVISVP2,2013-08-30 01:04:00,
2013-08-29 21:09:00,61.9,59.8,30.07,East,100,0.0,0.0,93,0.00,,,0.02,WUHU216DAVISVP2,2013-08-30 01:09:00,
2013-08-29 21:14:00,61.9,59.8,30.07,East,100,0.0,0.0,93,0.00,,,0.02,WUHU216DAVISVP2,2013-08-30 01:14:00,
2013-08-29 21:19:00,61.9,59.8,30.07,East,100,0.0,0.0,93,0.00,,,0.02,WUHU216DAVISVP2,2013-08-30 01:19:00,
2013-08-29 21:24:00,61.9,59.8,30.07,East,100,0.0,0.0,93,0.00,,,0.02,WUHU216DAVISVP2,2013-08-30 01:24:00,
2013-08-29 21:29:00,62.0,59.9,30.07,East,100,0.0,0.0,93,0.00,,,0.02,WUHU216DAVISVP2,2013-08-30 01:29:00,
2013-08-29 21:30:00,62.0,60.0,30.07,North,0,0.0,0.0,93,0.00,,,0.02,WUHU216DAVISVP2,2013-08-30 01:30:00,
2013-08-29 21:34:00,62.0,59.9,30.07,East,100,0.0,0.0,93,0.00,,,0.02,WUHU216DAVISVP2,2013-08-30 01:34:00,
2013-08-29 21:39:00,61.9,59.8,30.06,East,100,0.0,0.0,93,0.00,,,0.02,WUHU216DAVISVP2,2013-08-30 01:39:00,
2013-08-29 21:44:00,61.9,59.8,30.06,East,100,0.0,0.0,93,0.00,,,0.02,WUHU216DAVISVP2,2013-08-30 01:44:00,
2013-08-29 21:49:00,61.9,59.8,30.06,East,100,0.0,0.0,93,0.00,,,0.02,WUHU216DAVISVP2,2013-08-30 01:49:00,
2013-08-29 21:54:00,61.9,59.8,30.06,East,100,0.0,0.0,93,0.00,,,0.02,WUHU216DAVISVP2,2013-08-30 01:54:00,
2013-08-29 21:59:00,61.9,59.5,30.06,East,100,0.0,0.0,92,0.00,,,0.02,WUHU216DAVISVP2,2013-08-30 01:59:00,
2013-08-29 22:00:00,61.9,59.5,30.06,North,0,0.0,0.0,92,0.00,,,0.02,WUHU216DAVISVP2,2013-08-30 02:00:00,
2013-08-29 22:04:00,61.9,59.5,30.06,East,100,0.0,0.0,92,0.00,,,0.02,WUHU216DAVISVP2,2013-08-30 02:04:00,
2013-08-29 22:09:00,61.9,59.5,30.06,East,100,0.0,0.0,92,0.00,,,0.02,WUHU216DAVISVP2,2013-08-30 02:09:00,
2013-08-29 22:14:00,61.9,59.8,30.06,East,100,0.0,0.0,93,0.00,,,0.02,WUHU216DAVISVP2,2013-08-30 02:14:00,
2013-08-29 22:19:00,61.9,59.8,30.06,East,100,0.0,0.0,93,0.00,,,0.02,WUHU216DAVISVP2,2013-08-30 02:19:00,
2013-08-29 22:24:00,61.8,59.7,30.05,East,100,0.0,0.0,93,0.00,,,0.02,WUHU216DAVISVP2,2013-08-30 02:24:00,
2013-08-29 22:29:00,61.8,59.4,30.05,East,100,0.0,0.0,92,0.00,,,0.02,WUHU216DAVISVP2,2013-08-30 02:29:00,
2013-08-29 22:30:00,61.8,59.8,30.05,North,0,0.0,0.0,93,0.00,,,0.02,WUHU216DAVISVP2,2013-08-30 02:30:00,
2013-08-29 22:34:00,61.8,59.7,30.05,East,100,0.0,0.0,93,0.00,,,0.02,WUHU216DAVISVP2,2013-08-30 02:34:00,
2013-08-29 22:39:00,61.8,59.7,30.05,East,100,0.0,0.0,93,0.00,,,0.02,WUHU216DAVISVP2,2013-08-30 02:39:00,
2013-08-29 22:44:00,61.8,59.7,30.05,East,100,0.0,0.0,93,0.00,,,0.02,WUHU216DAVISVP2,2013-08-30 02:44:00,
2013-08-29 22:49:00,61.8,59.7,30.05,East,100,0.0,0.0,93,0.00,,,0.02,WUHU216DAVISVP2,2013-08-30 02:49:00,
2013-08-29 22:54:00,61.8,59.7,30.05,East,100,0.0,0.0,93,0.00,,,0.02,WUHU216DAVISVP2,2013-08-30 02:54:00,
2013-08-29 22:59:00,61.8,59.7,30.04,East,100,0.0,0.0,93,0.00,,,0.02,WUHU216DAVISVP2,2013-08-30 02:59:00,
2013-08-29 23:00:00,61.8,59.8,30.04,North,0,0.0,0.0,93,0.00,,,0.02,WUHU216DAVISVP2,2013-08-30 03:00:00,
2013-08-29 23:04:00,61.8,60.0,30.04,East,100,0.0,0.0,94,0.00,,,0.02,WUHU216DAVISVP2,2013-08-30 03:04:00,
2013-08-29 23:09:00,61.8,60.0,30.04,East,100,0.0,0.0,94,0.00,,,0.02,WUHU216DAVISVP2,2013-08-30 03:09:00,
2013-08-29 23:14:00,61.8,59.7,30.03,East,100,0.0,0.0,93,0.00,,,0.02,WUHU216DAVISVP2,2013-08-30 03:14:00,
2013-08-29 23:19:00,61.7,59.6,30.03,East,100,0.0,0.0,93,0.00,,,0.02,WUHU216DAVISVP2,2013-08-30 03:19:00,
2013-08-29 23:24:00,61.7,59.9,30.03,East,100,0.0,0.0,94,0.00,,,0.02,WUHU216DAVISVP2,2013-08-30 03:24:00,
2013-08-29 23:29:00,61.7,59.9,30.03,East,100,0.0,0.0,94,0.00,,,0.02,WUHU216DAVISVP2,2013-08-30 03:29:00,
2013-08-29 23:30:00,61.7,60.0,30.03,North,0,0.0,0.0,94,0.00,,,0.02,WUHU216DAVISVP2,2013-08-30 03:30:00,
2013-08-29 23:34:00,61.8,59.7,30.03,East,100,0.0,0.0,93,0.00,,,0.02,WUHU216DAVISVP2,2013-08-30 03:34:00,
2013-08-29 23:39:00,61.8,59.8,30.03,East,100,0.0,1.0,93,0.00,,,0.02,WUHU216DAVISVP2,2013-08-30 03:39:00,
2013-08-29 23:44:00,61.8,59.8,30.02,East,100,0.0,1.0,93,0.00,,,0.02,WUHU216DAVISVP2,2013-08-30 03:44:00,
2013-08-29 23:49:00,61.9,59.9,30.02,East,100,0.0,3.0,93,0.00,,,0.02,WUHU216DAVISVP2,2013-08-30 03:49:00,
2013-08-29 23:54:00,62.0,59.9,30.02,East,100,0.0,3.0,93,0.00,,,0.02,WUHU216DAVISVP2,2013-08-30 03:54:00,
2013-08-29 23:59:00,62.0,59.6,30.02,East,100,0.0,3.0,92,0.00,,,0.02,WUHU216DAVISVP2,2013-08-30 03:59:00,